Flag for Canada Weather past 2 weeks in Markham, Ontario, Canada

Now
34 °F

Partly sunny.


Feels Like: 31 °F
Forecast: N/A
Wind: 3 mph from South

Location: Toronto Buttonville

Current Time: Dec 21, 2014 at 4:16:53 PM

Latest Report: Dec 21, 2014 at 3:00 PM


Visibility: 15 mi

Pressure: 30.29 "Hg

Humidity: 60%

Dew point: 21 °F

Location of MarkhamLocation

Historic Weather in Markham — Graph

°F

Markham temperature yesterday

Maximum temperature yesterday: 32 °F (at 1:00 PM)
Minimum temperature yesterday: 16 °F (at 8:00 AM)
Average temperature yesterday: 24 °F

Past Weeks' High & Low Weather Summary

 TemperatureHumidityPressure
High39 °F (Dec 6, 3:00 PM)100% (Dec 9, 8:00 AM)30.81 "Hg (Dec 9, 8:00 AM)
Low16 °F (Dec 20, 8:00 AM)40% (Dec 7, 2:00 PM)29.74 "Hg (Dec 16, 2:00 PM)
Average31 °F82%30.13 "Hg
* Reported Dec 6 3:00 PM — Dec 21 3:00 PM, Markham, Weather by CustomWeather, © 2014

Note: Actual official high and low records may vary slightly from our data, if they occured in-between our weather recording intervals... More about our weather records

Advertising

Markham weather history for previous 24 hours

 ConditionsComfort  
Time TempWeatherWind HumidityBarometerVisibility
3:00 PM
Dec 21
34 °FPartly sunny.3 mph60%30.29 "Hg15 mi
2:00 PM36 °FPartly sunny.6 mph52%30.29 "Hg15 mi
1:00 PM36 °FPartly sunny.No wind56%30.30 "Hg15 mi
12:00 PM34 °FPartly sunny.2 mph60%30.32 "Hg15 mi
11:00 AM32 °FPartly sunny.2 mph64%30.33 "Hg15 mi
10:00 AM30 °FPartly sunny.2 mph75%30.35 "Hg15 mi
9:00 AM28 °FBroken clouds.No wind80%30.34 "Hg15 mi
8:00 AM27 °FPartly sunny.No wind86%30.33 "Hg15 mi
7:00 AM28 °FOvercast.No wind80%30.32 "Hg12 mi
6:00 AM28 °FMostly cloudy.No wind80%30.31 "Hg10 mi
5:00 AM28 °FOvercast.No wind86%30.30 "Hg10 mi
4:00 AM27 °FOvercast.No wind86%30.30 "Hg10 mi
3:00 AM28 °FMostly cloudy.No wind80%30.30 "Hg10 mi
2:00 AM28 °FOvercast.No wind80%30.29 "Hg10 mi
1:00 AM28 °FOvercast.No wind80%30.29 "Hg10 mi
12:00 AM28 °FOvercast.No wind80%30.30 "Hg12 mi
11:00 PM
Dec 20
28 °FOvercast.No wind80%30.30 "Hg15 mi
10:00 PM27 °FOvercast.No wind86%30.30 "Hg15 mi
9:00 PM27 °FOvercast.No wind80%30.31 "Hg15 mi
8:00 PM27 °FPassing clouds.No wind80%30.31 "Hg15 mi
7:00 PM27 °FPassing clouds.2 mph80%30.31 "Hg15 mi
6:00 PM27 °FPassing clouds.3 mph80%30.29 "Hg15 mi
5:00 PM28 °FPassing clouds.3 mph74%30.29 "Hg15 mi
Weather by CustomWeather, © 2014

See weather overviewHow to use our weather pages